"Pseudo-MPEC" for C0J7245

Created 2023 Sep 20 2:22:05 UT using Find_Orb

Click here for an explanation of pseudo-MPECs

 
 Astrometry: 
     C0J7245* C2023 09 18.32313023 46 52.856+06 43 10.81   ~9I8q 21.79GVNEOCPV00
     C0J7245  C2023 09 18.32862723 46 54.322+06 43 52.10   ~9I8q 21.76GVNEOCPV00
     C0J7245  C2023 09 18.33412623 46 55.798+06 44 34.01   ~9I8q 21.20GVNEOCPV00
     C0J7245  C2023 09 18.33962623 46 57.306+06 45 15.48   ~9I8q 21.53GVNEOCPV00
     C0J7245 KC2023 09 18.42561123 47 20.771+06 56 04.81   ~9IB7 21.58GVNEOCPI52
     C0J7245 KC2023 09 18.43102623 47 22.301+06 56 46.21   ~9IB7 21.86GVNEOCPI52
     C0J7245 KC2023 09 18.43643223 47 23.874+06 57 26.96   ~9IB7 21.68GVNEOCPI52
     C0J7245 KC2023 09 18.44184423 47 25.372+06 58 08.33   ~9IB7 21.38GVNEOCPI52
     C0J7245 KC2023 09 19.21738123 51 42.390+08 37 41.12   ~9J5b 21.14GVNEOCPV06
     C0J7245 KC2023 09 19.21950123 51 43.006+08 37 57.58   ~9J5b 21.29GVNEOCPV06
     C0J7245 KC2023 09 19.22162023 51 43.603+08 38 14.24   ~9J5b 21.47GVNEOCPV06
     C0J7245 KC2023 09 19.22373723 51 44.208+08 38 30.88   ~9J5b 21.47GVNEOCPV06
     C0J7245 1C2023 09 19.97623 23 55 48.70 +10 16 26.4    ~9K0M 19.0 VXNEOCP033
     C0J7245 1C2023 09 19.97797 23 55 49.25 +10 16 40.6    ~9K0M 20.1 VXNEOCP033
     C0J7245 1C2023 09 19.97970 23 55 49.77 +10 16 54.4    ~9K0M 20.4 VXNEOCP033
     C0J7245 1C2023 09 19.98175 23 55 50.42 +10 17 10.6    ~9K0M 20.2 VXNEOCP033
     C0J7245 1C2023 09 19.98380 23 55 51.01 +10 17 26.2    ~9K0M 20.7 VXNEOCP033

Station data:
(033) Karl Schwarzschild Observatory, Tautenburg  (N50.980137 E11.711240)
   Germany.  Observer B. Stecklum. 1.34-m f/3 Schmidt + CCD.
(I52) Steward Observatory, Mt. Lemmon Station  (N32.442544 W110.788920)
   US/Arizona.  Observers T. A. Pruyne, B. M. Africano, E. J. Christensen, G.
   A. Farneth, D. C. Fuls, A. R. Gibbs, A. D. Grauer, H. Gröller, J. A.
   Johnson, R. A. Kowalski, S. M. Larson, G. J. Leonard, D. Rankin, R. L.
   Seaman, F. C. Shelly, K. W. Wierzchoś. 1.0-m prime focus + CCD.
(V00) Kitt Peak-Bok  (N31.963125 W111.600190)  US/Arizona.  Observers T. A.
   Pruyne, B. M. Africano, E. J. Christensen, G. A. Farneth, D. C. Fuls, A.
   R. Gibbs, A. D. Grauer, H. Gröller, J. A. Johnson, R. A. Kowalski, S. M.
   Larson, G. J. Leonard, D. Rankin, R. L. Seaman, F. C. Shelly, K. W.
   Wierzchoś. 2.25-m reflector + 4x4K mosaic CCD.
(V06) Catalina Sky Survey-Kuiper  (N32.416844 W110.732550)  US/Arizona.
   Observers T. A. Pruyne, B. M. Africano, E. J. Christensen, G. A. Farneth,
   D. C. Fuls, A. R. Gibbs, A. D. Grauer, H. Gröller, J. A. Johnson, R. A.
   Kowalski, S. M. Larson, G. J. Leonard, D. Rankin, R. L. Seaman, F. C.
   Shelly, K. W. Wierzchoś. 1.55-m reflector + CCD.

Orbital elements:  C0J7245
   Perihelion 2023 Oct 5.50001 +/- 0.0392 TT = 12:00:00 (JD 2460223.00001)
Epoch 2023 Sep 19.0 TT = JDT 2460206.5   Earth MOID: 0.0647   Ma: 0.0562
M 353.27533573 +/- 0.040            (J2000 ecliptic)             AutoNEOCP
n   0.40755525 +/- 0.00166          Peri.   24.31591 +/- 0.041
a   1.80168301 +/- 0.00489          Node   349.12152 +/- 0.0020
e   0.4121141 +/- 0.00147           Incl.    4.66989 +/- 0.013
P   2.42/883.30d           H 26.28  G  0.15   U  8.4
q 1.05918390 +/- 0.000226    Q 2.54418213 +/- 0.00956
From 17 observations 2023 Sept. 18-19 (39.9 hr); mean residual 0".22
Residuals in arcseconds: 
230918 V00  .04+  .20+    230918 I52  .46+  .02-    230919 033  .41-  .28-    
230918 V00  .11-  .18-    230918 I52  .12-  .47+    230919 033  .02-  .15+    
230918 V00  .13-  .04+    230919 V06  .01-  .06+    230919 033  .04-  .26+    
230918 V00  .30+  .17-    230919 V06  .10+  .09-    230919 033  .44+  .24+    
230918 I52  .25-  .41-    230919 V06  .05-  .03-    230919 033  .04+  .38-    
230918 I52  .19-  .08+    230919 V06  .07-  .03+    

Ephemerides (geocentric):
Date (UTC) HH   RA             Dec           delta  r     elong  mag " sig PA
---- --------  ------------   ------------  ------ ------ -----  --- --------
2023 09 20 02  23 56 24.954   +10 31 57.79  .06888 1.0720 167.9 21.3 .333 176
2023 09 20 03  23 56 38.997   +10 37 28.45  .06884 1.0719 167.8 21.3 .351 178
2023 09 20 04  23 56 53.064   +10 42 59.39  .06881 1.0718 167.7 21.3 .370 179
2023 09 20 05  23 57 07.155   +10 48 30.60  .06877 1.0718 167.6 21.3 .390   0
2023 09 20 06  23 57 21.270   +10 54 02.09  .06873 1.0717 167.6 21.3 .411   1
2023 09 20 07  23 57 35.409   +10 59 33.84  .06869 1.0716 167.5 21.3 .433   2
2023 09 20 08  23 57 49.571   +11 05 05.85  .06866 1.0716 167.4 21.3 .456   3
2023 09 20 09  23 58 03.758   +11 10 38.13  .06862 1.0715 167.3 21.3 .479   4
2023 09 20 10  23 58 17.968   +11 16 10.67  .06858 1.0714 167.3 21.3 .504   5
2023 09 20 11  23 58 32.202   +11 21 43.46  .06855 1.0714 167.2 21.3 .529   6
2023 09 20 12  23 58 46.461   +11 27 16.50  .06851 1.0713 167.1 21.3 .556   7
2023 09 20 13  23 59 00.743   +11 32 49.79  .06847 1.0712 167.0 21.3 .583   8
2023 09 20 14  23 59 15.048   +11 38 23.32  .06844 1.0712 166.9 21.3 .611   9
2023 09 20 15  23 59 29.378   +11 43 57.10  .06840 1.0711 166.9 21.3 .640   9
2023 09 20 16  23 59 43.732   +11 49 31.11  .06837 1.0710 166.8 21.3 .671  10
2023 09 20 17  23 59 58.110   +11 55 05.36  .06833 1.0710 166.7 21.3 .702  11
2023 09 20 18  00 00 12.511   +12 00 39.84  .06830 1.0709 166.6 21.3 .733  11
2023 09 20 19  00 00 26.936   +12 06 14.54  .06827 1.0708 166.5 21.4 .766  12
2023 09 20 20  00 00 41.385   +12 11 49.48  .06823 1.0708 166.5 21.4 .800  13
2023 09 20 21  00 00 55.859   +12 17 24.63  .06820 1.0707 166.4 21.4 .835  13
2023 09 20 22  00 01 10.355   +12 22 59.99  .06817 1.0706 166.3 21.4 .871  14
2023 09 20 23  00 01 24.876   +12 28 35.58  .06813 1.0706 166.2 21.4 .907  14
2023 09 21 00  00 01 39.421   +12 34 11.37  .06810 1.0705 166.1 21.4 .945  15
2023 09 21 01  00 01 53.989   +12 39 47.37  .06807 1.0704 166.1 21.4 .983  15
2023 09 21 02  00 02 08.582   +12 45 23.57  .06804 1.0704 166.0 21.4 1.02  16
2023 09 21 03  00 02 23.198   +12 50 59.97  .06801 1.0703 165.9 21.4 1.06  16
2023 09 21 04  00 02 37.838   +12 56 36.57  .06798 1.0702 165.8 21.4 1.10  17
2023 09 21 05  00 02 52.502   +13 02 13.36  .06795 1.0702 165.7 21.4 1.15  17
2023 09 21 06  00 03 07.190   +13 07 50.33  .06792 1.0701 165.7 21.4 1.19  17
2023 09 21 07  00 03 21.901   +13 13 27.50  .06789 1.0701 165.6 21.4 1.23  18
2023 09 21 08  00 03 36.636   +13 19 04.84  .06786 1.0700 165.5 21.4 1.28  18
2023 09 21 09  00 03 51.395   +13 24 42.36  .06783 1.0699 165.4 21.4 1.33  19
2023 09 21 10  00 04 06.178   +13 30 20.06  .06780 1.0699 165.3 21.4 1.37  19
2023 09 21 11  00 04 20.985   +13 35 57.92  .06777 1.0698 165.3 21.4 1.42  19
2023 09 21 12  00 04 35.816   +13 41 35.96  .06774 1.0697 165.2 21.4 1.47  20
2023 09 21 13  00 04 50.670   +13 47 14.15  .06771 1.0697 165.1 21.4 1.52  20
2023 09 21 14  00 05 05.548   +13 52 52.51  .06768 1.0696 165.0 21.4 1.57  20
2023 09 21 15  00 05 20.450   +13 58 31.02  .06766 1.0696 164.9 21.4 1.62  20
2023 09 21 16  00 05 35.375   +14 04 09.68  .06763 1.0695 164.8 21.4 1.67  21
2023 09 21 17  00 05 50.325   +14 09 48.49  .06760 1.0694 164.8 21.4 1.73  21
2023 09 21 18  00 06 05.297   +14 15 27.45  .06758 1.0694 164.7 21.4 1.78  21
2023 09 21 19  00 06 20.294   +14 21 06.54  .06755 1.0693 164.6 21.4 1.84  21
2023 09 21 20  00 06 35.315   +14 26 45.77  .06752 1.0692 164.5 21.4 1.89  22
2023 09 21 21  00 06 50.359   +14 32 25.14  .06750 1.0692 164.4 21.4 1.95  22
2023 09 21 22  00 07 05.426   +14 38 04.63  .06747 1.0691 164.4 21.4 2.01  22
2023 09 21 23  00 07 20.518   +14 43 44.25  .06745 1.0691 164.3 21.4 2.07  22
2023 09 22 00  00 07 35.633   +14 49 23.99  .06742 1.0690 164.2 21.4 2.13  23
2023 09 22 01  00 07 50.772   +14 55 03.85  .06740 1.0689 164.1 21.4 2.19  23